When you browse on this site, cookies collect data to enhance your experience and personalize the content and advertising you see.
Visit our Privacy Policy to learn more. By continuing to use the site, you agree to this use of cookies and data.
  • In Hungary
  • List of Countries
  • For 7 days
  • Water Temperature
  • Weather Map
  • News
  • Weather Widgets
  • user-avatar
    Login

    Hourly Weather Bryancevo

    Today, 25 January, Saturday

    Time Temperature Precipitation Wind Pressure Humidity
    00:00 -1°C° 0.2 mm 4 mps 734 mmHg 96%
    01:00 -1°C° 0.2 mm 4 mps 734 mmHg 95%
    02:00 -1°C° 0.2 mm 4 mps 734 mmHg 94%
    03:00 -1°C° 0 mm 4 mps 734 mmHg 91%
    04:00 -1°C° 0 mm 4 mps 734 mmHg 87%
    05:00 -1°C° 0 mm 4 mps 734 mmHg 84%
    06:00 -2°C° 0 mm 4 mps 733 mmHg 86%
    07:00 -2°C° 0 mm 4 mps 733 mmHg 88%
    08:00 -1°C° 0 mm 3 mps 733 mmHg 90%
    09:00 -2°C° 0.1 mm 4 mps 732 mmHg 88%
    10:00 -1°C° 0.1 mm 5 mps 732 mmHg 86%
    11:00 -1°C° 0.1 mm 6 mps 731 mmHg 85%
    12:00 -2°C° 0.2 mm 6 mps 731 mmHg 79%
    13:00 -2°C° 0.2 mm 6 mps 732 mmHg 72%
    14:00 -2°C° 0.2 mm 7 mps 732 mmHg 66%
    15:00 -3°C° 0 mm 6 mps 732 mmHg 69%
    16:00 -4°C° 0 mm 6 mps 733 mmHg 72%
    17:00 -5°C° 0 mm 6 mps 733 mmHg 75%
    18:00 -5°C° 0 mm 6 mps 734 mmHg 78%
    19:00 -5°C° 0 mm 6 mps 734 mmHg 80%
    20:00 -6°C° 0 mm 7 mps 734 mmHg 83%
    21:00 -5°C° 0 mm 6 mps 735 mmHg 81%
    22:00 -5°C° 0 mm 6 mps 736 mmHg 80%
    23:00 -6°C° 0 mm 6 mps 737 mmHg 79%

    Tomorrow, 26 January, Sunday

    Time Temperature Precipitation Wind Pressure Humidity
    00:00 -6°C° 0 mm 6 mps 738 mmHg 78%
    01:00 -6°C° 0 mm 6 mps 739 mmHg 78%
    02:00 -6°C° 0 mm 6 mps 740 mmHg 77%
    03:00 -6°C° 0 mm 5 mps 741 mmHg 78%
    04:00 -6°C° 0 mm 5 mps 741 mmHg 79%
    05:00 -7°C° 0 mm 4 mps 742 mmHg 80%
    06:00 -7°C° 0 mm 4 mps 742 mmHg 80%
    07:00 -7°C° 0 mm 4 mps 743 mmHg 81%
    08:00 -6°C° 0 mm 3 mps 744 mmHg 82%
    09:00 -5°C° 0 mm 3 mps 744 mmHg 81%
    10:00 -4°C° 0 mm 4 mps 744 mmHg 80%
    11:00 -4°C° 0 mm 4 mps 744 mmHg 79%
    12:00 -3°C° 0 mm 4 mps 744 mmHg 78%
    13:00 -3°C° 0 mm 4 mps 744 mmHg 78%
    14:00 -3°C° 0 mm 4 mps 743 mmHg 77%
    15:00 -4°C° 0.2 mm 5 mps 742 mmHg 81%
    16:00 -4°C° 0.2 mm 6 mps 742 mmHg 84%
    17:00 -4°C° 0.2 mm 6 mps 741 mmHg 88%
    18:00 -3°C° 0.2 mm 6 mps 741 mmHg 90%
    19:00 -2°C° 0.2 mm 6 mps 740 mmHg 93%
    20:00 -1°C° 0.2 mm 6 mps 740 mmHg 95%
    21:00 -1°C° 0.1 mm 6 mps 740 mmHg 94%
    22:00 +1°C° 0.1 mm 6 mps 740 mmHg 93%
    23:00 +1°C° 0.1 mm 5 mps 740 mmHg 92%

    Day after tomorrow, 27 January, Monday

    Time Temperature Precipitation Wind Pressure Humidity
    00:00 +1°C° 0.1 mm 5 mps 740 mmHg 92%
    01:00 +1°C° 0.1 mm 5 mps 740 mmHg 92%
    02:00 +1°C° 0.1 mm 5 mps 741 mmHg 92%
    03:00 +1°C° 0.1 mm 5 mps 741 mmHg 93%
    04:00 +1°C° 0.1 mm 4 mps 742 mmHg 94%
    05:00 0°C° 0.1 mm 4 mps 742 mmHg 96%
    06:00 +1°C° 0.2 mm 3 mps 743 mmHg 96%
    07:00 +1°C° 0.2 mm 3 mps 743 mmHg 97%
    08:00 +1°C° 0.2 mm 2 mps 743 mmHg 98%
    09:00 +1°C° 0.1 mm 2 mps 744 mmHg 97%
    10:00 +2°C° 0.1 mm 1 mps 744 mmHg 96%
    11:00 +1°C° 0.1 mm 1 mps 745 mmHg 95%
    12:00 +1°C° 0.2 mm 1 mps 745 mmHg 95%
    13:00 -1°C° 0.2 mm 2 mps 745 mmHg 96%
    14:00 -1°C° 0.2 mm 2 mps 745 mmHg 96%
    15:00 -1°C° 0.5 mm 2 mps 745 mmHg 96%
    16:00 -2°C° 0.5 mm 2 mps 745 mmHg 97%
    17:00 -2°C° 0.5 mm 2 mps 745 mmHg 97%
    18:00 -2°C° 0.7 mm 3 mps 745 mmHg 97%
    19:00 -2°C° 0.7 mm 3 mps 745 mmHg 97%
    20:00 -2°C° 0.7 mm 3 mps 745 mmHg 97%
    21:00 -2°C° 0.6 mm 3 mps 745 mmHg 97%
    22:00 -2°C° 0.6 mm 3 mps 745 mmHg 97%
    23:00 -2°C° 0.6 mm 2 mps 744 mmHg 97%

    28 January, Tuesday

    Time Temperature Precipitation Wind Pressure Humidity
    00:00 -2°C° 0.4 mm 2 mps 744 mmHg 97%
    01:00 -2°C° 0.4 mm 2 mps 744 mmHg 97%
    02:00 -2°C° 0.4 mm 2 mps 743 mmHg 97%
    03:00 +1°C° 0.3 mm 1 mps 743 mmHg 98%
    04:00 +1°C° 0.3 mm 1 mps 743 mmHg 98%
    05:00 +1°C° 0.3 mm 1 mps 743 mmHg 98%
    06:00 +1°C° 0.3 mm 1 mps 743 mmHg 98%
    07:00 +2°C° 0.3 mm 1 mps 742 mmHg 98%
    08:00 +2°C° 0.3 mm 1 mps 742 mmHg 98%
    09:00 +2°C° 0.2 mm 1 mps 742 mmHg 98%
    10:00 +2°C° 0.2 mm 1 mps 742 mmHg 99%
    11:00 +2°C° 0.2 mm 1 mps 742 mmHg 99%
    12:00 +2°C° 0.2 mm 1 mps 742 mmHg 99%
    13:00 +2°C° 0.2 mm 1 mps 742 mmHg 99%
    14:00 +2°C° 0.2 mm 1 mps 742 mmHg 99%
    15:00 +2°C° 0.1 mm 1 mps 741 mmHg 98%
    16:00 +1°C° 0.1 mm 1 mps 741 mmHg 98%
    17:00 +1°C° 0.1 mm 1 mps 741 mmHg 98%
    18:00 +1°C° 0.1 mm 1 mps 741 mmHg 98%
    19:00 +1°C° 0.1 mm 1 mps 741 mmHg 98%
    20:00 +1°C° 0.1 mm 1 mps 741 mmHg 98%
    21:00 +1°C° 0.1 mm 1 mps 741 mmHg 98%
    22:00 +1°C° 0.1 mm 1 mps 741 mmHg 97%
    23:00 +1°C° 0.1 mm 1 mps 741 mmHg 97%

    29 January, Wednesday

    Time Temperature Precipitation Wind Pressure Humidity
    00:00 +1°C° 0 mm 1 mps 741 mmHg 97%
    01:00 0°C° 0 mm 1 mps 741 mmHg 96%
    02:00 0°C° 0 mm 1 mps 741 mmHg 96%
    03:00 -2°C° 0.1 mm 2 mps 741 mmHg 96%
    04:00 -2°C° 0.1 mm 2 mps 740 mmHg 97%
    05:00 -2°C° 0.1 mm 2 mps 740 mmHg 97%
    06:00 -1°C° 0.1 mm 2 mps 740 mmHg 98%
    07:00 -1°C° 0.1 mm 2 mps 740 mmHg 98%
    08:00 0°C° 0.1 mm 3 mps 740 mmHg 98%
    09:00 0°C° 0 mm 3 mps 740 mmHg 96%
    10:00 0°C° 0 mm 3 mps 740 mmHg 95%
    11:00 -1°C° 0 mm 4 mps 740 mmHg 94%
    12:00 -1°C° 0 mm 4 mps 739 mmHg 93%
    13:00 -1°C° 0 mm 4 mps 739 mmHg 92%
    14:00 0°C° 0 mm 3 mps 738 mmHg 91%
    15:00 -1°C° 0 mm 4 mps 738 mmHg 92%
    16:00 -1°C° 0 mm 4 mps 738 mmHg 93%
    17:00 -1°C° 0 mm 4 mps 738 mmHg 95%
    18:00 -1°C° 0.1 mm 4 mps 737 mmHg 96%
    19:00 -1°C° 0.1 mm 4 mps 737 mmHg 97%
    20:00 -1°C° 0.1 mm 4 mps 737 mmHg 98%
    21:00 -1°C° 0.1 mm 4 mps 736 mmHg 97%
    22:00 0°C° 0.1 mm 4 mps 736 mmHg 97%
    23:00 0°C° 0.1 mm 5 mps 736 mmHg 97%

    30 January, Thursday

    Time Temperature Precipitation Wind Pressure Humidity
    00:00 0°C° 0.1 mm 5 mps 735 mmHg 97%
    01:00 -1°C° 0.1 mm 5 mps 735 mmHg 97%
    02:00 -1°C° 0.1 mm 5 mps 734 mmHg 97%
    03:00 -1°C° 0.5 mm 5 mps 734 mmHg 97%
    04:00 -1°C° 0.5 mm 4 mps 734 mmHg 97%
    05:00 -1°C° 0.5 mm 4 mps 733 mmHg 97%
    06:00 -1°C° 0.4 mm 4 mps 734 mmHg 97%
    07:00 0°C° 0.4 mm 3 mps 734 mmHg 97%
    08:00 0°C° 0.4 mm 3 mps 734 mmHg 97%
    09:00 0°C° 0 mm 3 mps 734 mmHg 94%
    10:00 -1°C° 0 mm 3 mps 734 mmHg 92%
    11:00 -1°C° 0 mm 3 mps 734 mmHg 89%
    12:00 -1°C° 0 mm 2 mps 734 mmHg 89%
    13:00 -1°C° 0 mm 2 mps 734 mmHg 88%
    14:00 -1°C° 0 mm 2 mps 734 mmHg 88%
    15:00 +1°C° 0 mm 1 mps 734 mmHg 89%
    16:00 0°C° 0 mm 1 mps 734 mmHg 91%
    17:00 0°C° 0 mm 1 mps 734 mmHg 92%
    18:00 0°C° 0 mm 1 mps 734 mmHg 92%
    19:00 0°C° 0 mm 1 mps 734 mmHg 93%
    20:00 -1°C° 0 mm 0 mps 734 mmHg 93%
    21:00 -1°C° 0.1 mm 0 mps 734 mmHg 94%
    22:00 -1°C° 0.1 mm 0 mps 735 mmHg 95%
    23:00 -1°C° 0.1 mm 0 mps 735 mmHg 96%
    Show more